EW3427 Weather Reports


Display with metric or nautical units.
time (UTC)temp
F
wind
direction
speed
MPH
gust
MPH
rain 1hr
in
rain 24hr
in
rain mn
in
humidity
%
barometer
mb
20190527135953 54 90 8.0 13.0 0.00 0.00 0.00 80 1017.5
20190527135452 54 78 6.0 15.0 0.00 0.00 0.00 80 1017.5
20190527134951 54 55 9.0 15.0 0.00 0.00 0.00 80 1017.5
20190527134450 54 74 8.0 14.0 0.00 0.00 0.00 80 1017.9
20190527133949 54 83 6.0 14.0 0.00 0.00 0.00 80 1017.9
20190527133449 54 104 9.0 14.0 0.00 0.00 0.00 80 1017.9
20190527132947 54 96 9.0 17.0 0.00 0.00 0.00 80 1017.6
20190527132447 54 83 13.0 17.0 0.00 0.00 0.00 80 1017.2
20190527131946 54 90 11.0 16.0 0.00 0.00 0.00 80 1017.2
20190527131446 54 96 8.0 18.0 0.00 0.00 0.00 80 1017.6
20190527130944 54 87 13.0 18.0 0.00 0.00 0.00 79 1017.9
20190527130444 54 78 11.0 14.0 0.00 0.00 0.00 79 1017.9
20190527125943 54 87 6.0 13.0 0.00 0.00 0.00 79 1017.9
20190527125442 54 74 10.0 13.0 0.00 0.00 0.00 79 1018.0
20190527124941 54 82 5.0 13.0 0.00 0.00 0.00 78 1018.0
20190527124440 54 97 7.0 13.0 0.00 0.00 0.00 78 1018.0
20190527123940 54 91 10.0 13.0 0.00 0.00 0.00 78 1018.3
20190527123439 54 85 7.0 11.0 0.00 0.00 0.00 78 1018.6
20190527122938 54 81 7.0 10.0 0.00 0.00 0.00 78 1019.0
20190527122437 55 86 5.0 10.0 0.00 0.00 0.00 78 1019.0
20190527121936 55 96 6.0 10.0 0.00 0.00 0.00 78 1019.3
20190527121436 55 94 7.0 10.0 0.00 0.00 0.00 78 1019.7
20190527120935 55 87 5.0 10.0 0.00 0.00 0.00 78 1019.7
20190527120434 55 82 4.0 9.0 0.00 0.00 0.00 79 1019.7
20190527115933 55 104 6.0 9.0 0.00 0.00 0.00 79 1019.4
20190527115432 55 92 8.0 9.0 0.00 0.00 0.00 79 1019.4
20190527114931 55 96 4.0 8.0 0.00 0.00 0.00 79 1019.4
20190527114430 55 106 4.0 8.0 0.00 0.00 0.00 79 1019.4
20190527113929 55 67 6.0 11.0 0.00 0.00 0.00 79 1019.4
20190527113429 55 80 4.0 11.0 0.00 0.00 0.00 79 1019.0
20190527112928 55 83 9.0 11.0 0.00 0.00 0.00 79 1019.0
20190527112427 55 91 6.0 9.0 0.00 0.00 0.00 78 1019.4
20190527111926 55 81 5.0 11.0 0.00 0.00 0.00 78 1019.4
20190527111425 55 95 8.0 11.0 0.00 0.00 0.00 78 1019.4
20190527110925 55 74 5.0 10.0 0.00 0.00 0.00 78 1019.4
20190527110424 55 71 7.0 10.0 0.00 0.00 0.00 78 1019.4
20190527105923 55 86 6.0 8.0 0.00 0.00 0.00 78 1019.0
20190527105422 55 95 4.0 9.0 0.00 0.00 0.00 78 1019.4
20190527104922 55 96 5.0 11.0 0.00 0.00 0.00 77 1019.4
20190527104421 55 81 7.0 11.0 0.00 0.00 0.00 77 1019.1
20190527103920 55 91 7.0 11.0 0.00 0.00 0.00 77 1019.4
20190527103419 55 109 7.0 11.0 0.00 0.00 0.00 77 1019.4
20190527102918 55 93 7.0 9.0 0.00 0.00 0.00 76 1019.4
20190527102417 55 81 6.0 10.0 0.00 0.00 0.00 76 1019.4
20190527101916 55 84 7.0 10.0 0.00 0.00 0.00 76 1019.1
20190527101415 55 80 7.0 10.0 0.00 0.00 0.00 76 1019.1
20190527100914 56 84 5.0 9.0 0.00 0.00 0.00 76 1019.1
20190527100413 56 80 5.0 10.0 0.00 0.00 0.00 76 1019.1
20190527095912 56 71 6.0 10.0 0.00 0.00 0.00 76 1019.1
20190527095412 56 85 7.0 9.0 0.00 0.00 0.00 76 1019.1
20190527094911 56 95 5.0 7.0 0.00 0.00 0.00 76 1019.1
20190527094410 56 104 5.0 8.0 0.00 0.00 0.00 76 1018.7
20190527093909 56 103 4.0 8.0 0.00 0.00 0.00 77 1018.7
20190527093409 56 84 6.0 8.0 0.00 0.00 0.00 77 1018.7
20190527092908 56 92 5.0 8.0 0.00 0.00 0.00 78 1018.7
20190527092407 56 90 6.0 8.0 0.00 0.00 0.00 78 1018.7
20190527091906 56 97 5.0 8.0 0.00 0.00 0.00 78 1018.7
20190527091406 56 92 6.0 8.0 0.00 0.00 0.00 78 1018.7
20190527090904 56 86 4.0 6.0 0.00 0.00 0.00 78 1019.1
20190527090404 56 90 4.0 6.0 0.00 0.00 0.00 78 1019.1
20190527085903 56 92 3.0 6.0 0.00 0.00 0.00 78 1019.1
20190527085402 56 95 3.0 5.0 0.00 0.00 0.00 78 1019.4
20190527084902 56 87 3.0 4.0 0.00 0.00 0.00 77 1019.1
20190527084401 56 88 3.0 5.0 0.00 0.00 0.00 77 1019.1
20190527083900 56 104 3.0 6.0 0.00 0.00 0.00 77 1019.4
20190527083359 56 77 4.0 7.0 0.00 0.00 0.00 77 1019.4
20190527082858 56 51 5.0 7.0 0.00 0.00 0.00 76 1019.4
20190527082357 56 73 4.0 6.0 0.00 0.00 0.00 77 1019.4
20190527081856 56 102 2.0 5.0 0.00 0.00 0.00 77 1019.1
20190527081354 56 94 3.0 5.0 0.00 0.00 0.00 77 1019.1
20190527080854 56 104 3.0 5.0 0.00 0.00 0.00 77 1019.1
20190527080353 56 103 3.0 5.0 0.00 0.00 0.00 77 1019.1
20190527075852 56 95 4.0 5.0 0.00 0.00 0.00 77 1019.1
20190527075351 56 86 4.0 5.0 0.00 0.00 0.00 77 1019.1
20190527074850 56 91 4.0 5.0 0.00 0.00 0.00 77 1019.1
20190527074350 56 85 4.0 6.0 0.00 0.00 0.00 77 1019.1
20190527073849 56 100 4.0 6.0 0.00 0.00 0.00 77 1018.7
20190527073348 56 85 4.0 6.0 0.00 0.00 0.00 77 1019.1
20190527072847 57 86 4.0 6.0 0.00 0.00 0.00 77 1018.7
20190527072346 57 87 4.0 6.0 0.00 0.00 0.00 77 1019.0
20190527071845 57 107 3.0 6.0 0.00 0.00 0.00 77 1019.1
20190527071345 57 87 4.0 6.0 0.00 0.00 0.00 77 1019.1
20190527070844 57 99 4.0 6.0 0.00 0.00 0.00 77 1019.1
20190527070343 57 101 4.0 4.0 0.00 0.00 0.00 77 1019.1
20190527065842 57 107 2.0 5.0 0.00 0.00 0.00 77 1019.1
20190527065342 57 113 1.0 5.0 0.00 0.00 0.00 77 1019.1
20190527064841 57 90 3.0 4.0 0.00 0.00 0.00 77 1019.1
20190527064340 57 113 2.0 4.0 0.00 0.00 0.00 76 1019.1
20190527063839 57 68 4.0 4.0 0.00 0.00 0.00 76 1019.1
20190527063338 57 90 0.0 0.0 0.00 0.00 0.00 76 1019.1
20190527062838 57 113 0.0 1.0 0.00 0.00 0.00 76 1019.1
20190527062337 57 113 0.0 2.0 0.00 0.00 0.00 76 1019.1
20190527061836 57 113 1.0 2.0 0.00 0.00 0.00 76 1019.1
20190527061335 57 113 1.0 2.0 0.00 0.00 0.00 75 1019.4
20190527060834 57 113 0.0 1.0 0.00 0.00 0.00 75 1019.4
20190527060334 58 113 0.0 3.0 0.00 0.00 0.00 75 1019.4
20190527055833 58 113 1.0 3.0 0.00 0.00 0.00 75 1019.4
20190527055332 58 135 1.0 2.0 0.00 0.00 0.00 75 1019.4
20190527054831 58 165 1.0 2.0 0.00 0.00 0.00 75 1019.4
20190527054330 58 130 1.0 2.0 0.00 0.00 0.00 75 1019.4
20190527053829 58 135 0.0 0.0 0.00 0.00 0.00 74 1019.4
20190527053329 58 135 0.0 0.0 0.00 0.00 0.00 74 1019.4
20190527052830 58 135 0.0 0.0 0.00 0.00 0.00 73 1019.4
20190527052327 58 158 0.0 1.0 0.00 0.00 0.00 73 1019.4
20190527051827 58 158 0.0 2.0 0.00 0.00 0.00 73 1019.7
20190527051326 59 158 1.0 2.0 0.00 0.00 0.00 72 1019.7
20190527050825 59 135 1.0 1.0 0.00 0.00 0.00 72 1019.7
20190527050324 59 135 0.0 1.0 0.00 0.00 0.00 72 1019.7
20190527045823 59 135 0.0 2.0 0.00 0.00 0.00 72 1019.7
20190527045322 59 135 0.0 3.0 0.00 0.00 0.00 71 1019.7
20190527044821 59 117 2.0 5.0 0.00 0.00 0.00 71 1019.7
20190527044321 59 127 2.0 5.0 0.00 0.00 0.00 71 1019.4
20190527043820 60 125 2.0 8.0 0.00 0.00 0.00 71 1019.4
20190527043319 60 126 4.0 8.0 0.00 0.00 0.00 72 1019.4
20190527042818 60 110 3.0 4.0 0.00 0.00 0.00 71 1019.4
20190527042318 60 113 3.0 4.0 0.00 0.00 0.00 71 1019.4
20190527041817 60 140 1.0 7.0 0.00 0.00 0.00 70 1019.7
20190527041315 60 122 4.0 7.0 0.00 0.00 0.00 70 1019.7
20190527040815 60 132 2.0 6.0 0.00 0.00 0.00 70 1019.4
20190527040314 60 139 2.0 6.0 0.00 0.00 0.00 70 1019.4
20190527035813 60 116 3.0 5.0 0.00 0.00 0.00 69 1019.4
20190527035313 61 132 2.0 6.0 0.00 0.00 0.00 70 1019.1
20190527034811 60 113 4.0 6.0 0.00 0.00 0.00 71 1019.0
20190527034311 60 120 3.0 6.0 0.00 0.00 0.00 70 1019.4
20190527033810 60 113 2.0 7.0 0.00 0.00 0.00 70 1019.0
20190527033309 60 106 5.0 7.0 0.00 0.00 0.00 70 1019.0
20190527032809 60 118 3.0 5.0 0.00 0.00 0.00 71 1019.3
20190527032308 60 113 3.0 4.0 0.00 0.00 0.00 71 1019.0
20190527031807 60 113 0.0 1.0 0.00 0.00 0.00 70 1019.0
20190527031306 60 135 0.0 0.0 0.00 0.00 0.00 70 1019.0
20190527030805 61 135 0.0 0.0 0.00 0.00 0.00 70 1019.3
20190527030304 61 135 0.0 2.0 0.00 0.00 0.00 69 1019.3
20190527025803 61 248 0.0 3.0 0.00 0.00 0.00 68 1019.3
20190527025302 62 248 2.0 3.0 0.00 0.00 0.00 68 1019.3
20190527024801 62 113 0.0 1.0 0.00 0.00 0.00 67 1019.3
20190527024300 62 113 0.0 2.0 0.00 0.00 0.00 67 1019.0
20190527023759 62 113 1.0 2.0 0.00 0.00 0.00 67 1019.0
20190527023258 63 113 1.0 1.0 0.00 0.00 0.00 67 1019.0
20190527022757 63 113 0.0 1.0 0.00 0.00 0.00 66 1019.0
20190527022256 63 113 1.0 1.0 0.00 0.00 0.00 66 1019.0
20190527021755 63 113 0.0 1.0 0.00 0.00 0.00 65 1019.0
20190527021255 64 113 1.0 1.0 0.00 0.00 0.00 64 1019.0
20190527020754 64 113 1.0 1.0 0.00 0.00 0.00 64 1019.0
20190527020253 65 113 0.0 0.0 0.00 0.00 0.00 63 1019.0
20190527015752 65 113 0.0 0.0 0.00 0.00 0.00 62 1019.0
20190527015251 65 113 0.0 1.0 0.00 0.00 0.00 61 1019.0
20190527014750 65 113 0.0 2.0 0.00 0.00 0.00 61 1018.7
20190527014249 66 113 1.0 3.0 0.00 0.00 0.00 60 1018.7
20190527013748 66 113 1.0 3.0 0.00 0.00 0.00 59 1018.7
20190527013248 66 113 2.0 3.0 0.00 0.00 0.00 60 1019.0
20190527012747 66 113 3.0 3.0 0.00 0.00 0.00 59 1019.0
20190527012246 67 113 2.0 4.0 0.00 0.00 0.00 58 1018.7
20190527011745 67 116 3.0 4.0 0.00 0.00 0.00 58 1018.7
20190527011244 67 115 2.0 5.0 0.00 0.00 0.00 57 1018.7
20190527010743 67 113 3.0 5.0 0.00 0.00 0.00 57 1018.7
20190527010242 67 111 3.0 5.0 0.00 0.00 0.00 57 1018.7
20190527005741 68 117 2.0 5.0 0.00 0.00 0.00 57 1018.7
20190527005240 68 117 3.0 5.0 0.00 0.00 0.00 57 1018.7
20190527004740 68 120 3.0 6.0 0.00 0.00 0.00 56 1018.7
20190527004239 68 117 3.0 6.0 0.00 0.00 0.00 56 1018.7
20190527003738 68 116 4.0 6.0 0.00 0.00 0.00 56 1018.7
20190527003238 68 120 3.0 6.0 0.00 0.00 0.00 56 1018.7
20190527002737 69 129 4.0 7.0 0.00 0.00 0.00 56 1018.7
20190527002236 69 128 4.0 7.0 0.00 0.00 0.00 55 1018.3
20190527001735 69 122 4.0 8.0 0.00 0.00 0.00 55 1018.4
20190527001234 69 131 6.0 8.0 0.00 0.00 0.00 55 1018.4
20190527000736 69 120 5.0 8.0 0.00 0.00 0.00 56 1018.4
20190527000232 69 109 5.0 10.0 0.00 0.00 0.00 56 1018.4
20190526235732 70 113 5.0 10.0 0.00 0.00 0.00 55 1018.4
20190526235231 70 117 5.0 8.0 0.00 0.00 0.00 56 1018.4
20190526234730 70 113 4.0 8.0 0.00 0.00 0.00 56 1018.4
20190526234229 70 89 4.0 8.0 0.00 0.00 0.00 55 1018.7
20190526233729 70 114 5.0 8.0 0.00 0.00 0.00 55 1018.4
20190526233228 70 103 3.0 8.0 0.00 0.00 0.00 56 1018.4
20190526232727 70 106 5.0 8.0 0.00 0.00 0.00 56 1018.7
20190526232226 70 74 3.0 6.0 0.00 0.00 0.00 56 1018.7
20190526231725 70 107 5.0 8.0 0.00 0.00 0.00 56 1018.7
20190526231224 70 113 5.0 8.0 0.00 0.00 0.00 56 1018.7
20190526230723 70 96 4.0 8.0 0.00 0.00 0.00 55 1018.7
20190526230223 71 91 5.0 8.0 0.00 0.00 0.00 55 1018.7
20190526225722 71 96 5.0 8.0 0.00 0.00 0.00 56 1018.7
20190526225221 71 113 2.0 8.0 0.00 0.00 0.00 55 1018.7
20190526224720 71 70 2.0 7.0 0.00 0.00 0.00 55 1018.7
20190526224219 71 111 5.0 9.0 0.00 0.00 0.00 56 1018.7
20190526223719 71 102 6.0 9.0 0.00 0.00 0.00 57 1019.1
20190526223218 71 121 3.0 8.0 0.00 0.00 0.00 57 1018.7
20190526222717 71 99 2.0 8.0 0.00 0.00 0.00 57 1018.7
20190526222216 71 120 4.0 7.0 0.00 0.00 0.00 58 1019.1
20190526221715 71 121 4.0 8.0 0.00 0.00 0.00 58 1019.1
20190526221214 71 123 5.0 8.0 0.00 0.00 0.00 58 1019.1
20190526220714 71 92 4.0 7.0 0.00 0.00 0.00 57 1019.1
20190526220213 71 122 3.0 7.0 0.00 0.00 0.00 57 1019.1
20190526215712 71 107 5.0 7.0 0.00 0.00 0.00 56 1019.1
20190526215211 71 120 5.0 7.0 0.00 0.00 0.00 57 1019.1
20190526214710 71 103 3.0 6.0 0.00 0.00 0.00 58 1019.1
20190526214210 70 206 2.0 7.0 0.00 0.00 0.00 57 1019.1
20190526213709 70 179 5.0 7.0 0.00 0.00 0.00 57 1019.4
20190526213208 70 109 3.0 8.0 0.00 0.00 0.00 57 1019.4
20190526212707 71 81 5.0 8.0 0.00 0.00 0.00 56 1019.7
20190526212207 71 55 4.0 11.0 0.00 0.00 0.00 55 1019.7
20190526211706 71 57 3.0 12.0 0.00 0.00 0.00 56 1019.7
20190526211205 71 94 10.0 12.0 0.00 0.00 0.00 58 1019.8
20190526210704 71 111 7.0 11.0 0.00 0.00 0.00 58 1019.8
20190526210203 71 127 6.0 11.0 0.00 0.00 0.00 57 1019.8
20190526205702 72 102 3.0 7.0 0.00 0.00 0.00 57 1019.8
20190526205202 72 120 4.0 6.0 0.00 0.00 0.00 58 1019.8
20190526204701 71 296 3.0 6.0 0.00 0.00 0.00 56 1019.8
20190526204200 71 265 3.0 6.0 0.00 0.00 0.00 58 1019.8
20190526203659 71 29 3.0 7.0 0.00 0.00 0.00 57 1019.8
20190526203159 70 100 2.0 9.0 0.00 0.00 0.00 57 1019.7
20190526202658 70 349 4.0 9.0 0.00 0.00 0.00 56 1019.7
20190526202157 70 18 3.0 7.0 0.00 0.00 0.00 58 1019.7
20190526201656 70 76 3.0 8.0 0.00 0.00 0.00 57 1019.7
20190526201156 70 10 6.0 8.0 0.00 0.00 0.00 56 1019.7
20190526200655 70 86 4.0 6.0 0.00 0.00 0.00 59 1019.7
20190526200154 70 81 3.0 7.0 0.00 0.00 0.00 59 1019.8
20190526195654 70 71 4.0 7.0 0.00 0.00 0.00 58 1019.8
20190526195152 70 74 3.0 10.0 0.00 0.00 0.00 60 1019.8
20190526194651 69 63 5.0 10.0 0.00 0.00 0.00 60 1019.8
20190526194150 69 8 4.0 9.0 0.00 0.00 0.00 61 1019.7
20190526193649 69 108 4.0 10.0 0.00 0.00 0.00 61 1019.7
20190526193149 69 105 6.0 10.0 0.00 0.00 0.00 62 1019.8
20190526192648 68 57 4.0 9.0 0.00 0.00 0.00 61 1019.7
20190526192147 68 63 3.0 9.0 0.00 0.00 0.00 61 1019.8
20190526191646 69 80 4.0 8.0 0.00 0.00 0.00 61 1019.8
20190526191145 69 85 5.0 13.0 0.00 0.00 0.00 61 1019.8
20190526190644 69 97 8.0 13.0 0.00 0.00 0.00 62 1019.8
20190526190143 69 112 3.0 7.0 0.00 0.00 0.00 61 1019.8
20190526185643 69 125 2.0 9.0 0.00 0.00 0.00 61 1019.8
20190526185141 69 93 6.0 9.0 0.00 0.00 0.00 61 1019.8
20190526184641 70 346 2.0 9.0 0.00 0.00 0.00 60 1019.8
20190526184140 70 87 8.0 9.0 0.00 0.00 0.00 63 1019.8
20190526183639 69 12 7.0 9.0 0.00 0.00 0.00 61 1019.8
20190526183138 69 82 4.0 8.0 0.00 0.00 0.00 63 1019.8
20190526182637 69 87 7.0 8.0 0.00 0.00 0.00 63 1019.8
20190526182137 69 167 5.0 8.0 0.00 0.00 0.00 64 1020.2
20190526181636 69 148 5.0 8.0 0.00 0.00 0.00 64 1019.8
20190526181135 68 109 6.0 8.0 0.00 0.00 0.00 65 1020.2
20190526180634 68 212 4.0 10.0 0.00 0.00 0.00 64 1020.2
20190526180133 68 19 2.0 10.0 0.00 0.00 0.00 65 1020.2
20190526175633 68 115 5.0 8.0 0.00 0.00 0.00 66 1020.2
20190526175132 68 102 5.0 8.0 0.00 0.00 0.00 65 1020.2
20190526174631 68 64 4.0 8.0 0.00 0.00 0.00 64 1020.2
20190526174130 67 150 2.0 10.0 0.00 0.00 0.00 64 1020.2
20190526173629 67 109 6.0 10.0 0.00 0.00 0.00 65 1020.2
20190526173128 67 57 6.0 10.0 0.00 0.00 0.00 64 1020.2
20190526172627 67 88 6.0 9.0 0.00 0.00 0.00 65 1020.2
20190526172126 67 112 6.0 10.0 0.00 0.00 0.00 65 1020.2
20190526171626 67 96 6.0 10.0 0.00 0.00 0.00 64 1020.2
20190526171124 67 60 3.0 8.0 0.00 0.00 0.00 64 1020.2
20190526170624 67 115 7.0 8.0 0.00 0.00 0.00 65 1020.2
20190526170123 66 166 2.0 10.0 0.00 0.00 0.00 64 1019.9
20190526165622 66 171 5.0 10.0 0.00 0.00 0.00 65 1019.9
20190526165121 66 132 7.0 11.0 0.00 0.00 0.00 65 1019.9
20190526164620 66 88 7.0 11.0 0.00 0.00 0.00 65 1019.9
20190526164120 66 92 6.0 9.0 0.00 0.00 0.00 65 1019.9
20190526163619 66 108 7.0 13.0 0.00 0.00 0.00 66 1019.9
20190526163118 66 109 7.0 13.0 0.00 0.00 0.00 65 1019.9
20190526162617 66 94 6.0 10.0 0.00 0.00 0.00 67 1019.9
20190526162116 65 164 4.0 8.0 0.00 0.00 0.00 67 1019.9
20190526161615 65 77 6.0 9.0 0.00 0.00 0.00 67 1019.9
20190526161114 65 93 6.0 9.0 0.00 0.00 0.00 68 1019.9
20190526160614 65 98 4.0 10.0 0.00 0.00 0.00 69 1019.9
20190526160113 65 86 6.0 10.0 0.00 0.00 0.00 70 1019.9
20190526155612 64 286 1.0 8.0 0.00 0.00 0.00 70 1019.9
20190526155111 64 113 3.0 8.0 0.00 0.00 0.00 72 1019.9
20190526154610 63 135 4.0 8.0 0.00 0.00 0.00 72 1019.5
20190526154110 63 94 5.0 8.0 0.00 0.00 0.00 72 1019.5
20190526153609 63 150 2.0 6.0 0.00 0.00 0.00 73 1019.5
20190526153108 63 93 5.0 6.0 0.00 0.00 0.00 74 1019.5
20190526152607 62 243 2.0 4.0 0.00 0.00 0.00 75 1019.5
20190526152106 62 301 4.0 5.0 0.00 0.00 0.00 75 1019.5
20190526151606 61 0 3.0 6.0 0.00 0.00 0.00 75 1019.8
20190526151105 61 68 3.0 6.0 0.00 0.00 0.00 74 1019.8
20190526150604 61 62 2.0 6.0 0.00 0.00 0.00 75 1019.5
20190526150103 61 83 4.0 6.0 0.00 0.00 0.00 75 1019.5
20190526145602 60 106 3.0 6.0 0.00 0.00 0.00 76 1019.5
20190526145101 60 103 3.0 6.0 0.00 0.00 0.00 76 1019.5
20190526144600 60 156 1.0 7.0 0.00 0.00 0.00 76 1019.8
20190526144100 60 60 3.0 7.0 0.00 0.00 0.00 76 1019.5
20190526143559 59 110 5.0 6.0 0.00 0.00 0.00 77 1019.8
20190526143058 59 111 4.0 6.0 0.00 0.00 0.00 77 1019.5
20190526142557 59 81 3.0 5.0 0.00 0.00 0.00 77 1019.5
20190526142056 59 90 4.0 6.0 0.00 0.00 0.00 77 1019.8
20190526141555 59 92 4.0 6.0 0.00 0.00 0.00 78 1019.8
20190526141054 59 3 1.0 4.0 0.00 0.00 0.00 78 1019.5
20190526140553 59 96 2.0 4.0 0.00 0.00 0.00 78 1019.5